[[{"header":{"parameterUnit":"m.s-1","parameterCategory":1,"la1":30.2991,"la2":30.254,"lo1":-89.0895,"lo2":-89.0444,"dy":0.0017,"dx":0.0017,"nx":28,"ny":28,"refTime":"2025-09-07T09:00:00:Z","depth":0,"parameterNumber":2,"parameterNumberName":"U-component_of_WINDS"},"data":[0,0,0,0,0,0,0,0,0,0,0,0,0,0,0,0,0,0,0,0,0,0,0,0,0,0,0,0,0,0,0,0,0,0,0,0,0,0,0,0,0,0,0,0,0,0,0,0,0,0,0,0,0,0,0,0,0,0,-0.7154,-0.7155,0,-0.7232,-0.7233,-0.7234,-0.7222,-0.722,-0.7219,-0.7218,-0.7299,-0.7303,-0.7306,0,0,0,0,0,0,0,0,0,0,0,0,0,-0.6995,-0.6998,-0.7154,-0.7155,-0.7156,-0.7232,-0.7233,-0.7234,-0.7222,-0.722,-0.7219,-0.7217,-0.7298,-0.7302,-0.7306,0,0,0,0,0,0,0,0,0,0,0,0,0,-0.7068,-0.6999,-0.7154,-0.7159,-0.716,-0.7231,-0.7233,-0.7234,-0.7222,-0.722,-0.7218,-0.7216,-0.7297,-0.7302,-0.7307,-0.7379,0,0,-0.7323,-0.7325,0,0,0,0,0,0,0,0,-0.7064,-0.7074,-0.7157,-0.7159,-0.716,-0.7215,-0.7207,-0.7283,-0.7223,-0.7199,-0.7218,-0.7215,-0.7273,-0.728,-0.7299,-0.7383,-0.7386,-0.7323,-0.7326,-0.7328,-0.733,0,0,0,0,0,0,0,-0.7059,-0.707,-0.7185,-0.7158,-0.716,-0.7158,-0.7166,-0.7221,-0.7246,-0.7201,-0.72,-0.7209,-0.7273,-0.7294,-0.7301,-0.7387,-0.7323,-0.7328,-0.7331,-0.7333,-0.7534,-0.7536,0,0,0,0,0,0,-0.7052,-0.7066,-0.7182,-0.7187,-0.7106,-0.7162,-0.7171,-0.7199,-0.7246,-0.7251,-0.7211,-0.7208,-0.7286,-0.7295,-0.7304,-0.7391,-0.7328,-0.7333,-0.7336,-0.7531,-0.7534,-0.7537,0,0,0,0,0,0,-0.7049,-0.7063,-0.7179,-0.7126,-0.7141,-0.7167,-0.7199,-0.7202,-0.7223,-0.7253,-0.7258,-0.7227,-0.7285,-0.7297,-0.736,-0.7394,-0.7336,-0.734,-0.7529,-0.7532,-0.7535,-0.7567,0,0,0,0,0,0,-0.7044,-0.7061,-0.7089,-0.7127,-0.7144,-0.7234,-0.7201,-0.7205,-0.7231,-0.7229,-0.727,-0.7275,-0.7284,-0.7353,-0.7365,-0.74,-0.7344,-0.7526,-0.753,-0.7534,-0.7563,-0.7571,-0.7578,0,0,0,0,0,-0.7039,-0.7095,-0.709,-0.7104,-0.7179,-0.7236,-0.7246,-0.7255,-0.7234,-0.7262,-0.7282,-0.7274,-0.7388,-0.7359,-0.7373,-0.741,-0.7524,-0.7529,-0.7534,-0.756,-0.7569,-0.7578,0,0,0,0,0,0,-0.7061,-0.71,-0.7095,-0.7166,-0.7198,-0.7234,-0.727,-0.7265,-0.7304,-0.73,-0.731,-0.732,-0.7384,-0.7403,-0.7371,-0.7482,-0.7453,-0.7461,-0.7468,-0.7477,-0.7484,-0.7479,-0.7349,0,0,0,0,0,-0.7074,-0.7117,-0.7149,-0.7208,-0.7224,-0.7244,-0.7269,-0.7273,-0.7307,-0.7321,-0.7345,-0.7378,-0.7421,-0.745,-0.7492,-0.7565,-0.7574,-0.7597,-0.7604,-0.761,-0.7618,-0.7659,-0.767,-0.7553,-0.7553,-0.7553,0,0,-0.7102,-0.7128,-0.7155,-0.7213,-0.7238,-0.7283,-0.7255,-0.7304,-0.7337,-0.7328,-0.739,-0.7409,-0.7446,-0.7515,-0.7547,-0.7533,-0.7652,-0.7617,-0.7621,-0.7626,-0.7665,-0.7676,-0.7686,-0.7557,-0.7556,-0.7555,0,0,-0.7176,-0.7199,-0.7252,-0.7277,-0.7315,-0.7327,-0.734,-0.7377,-0.7388,-0.745,-0.7444,-0.7484,-0.7558,-0.7586,-0.7609,-0.7691,-0.7686,-0.7704,-0.7744,-0.7783,-0.7793,-0.7801,-0.7831,-0.7842,-0.7711,-0.7711,-0.7712,0,-0.7206,-0.7272,-0.7279,-0.7328,-0.7354,-0.7346,-0.74,-0.7424,-0.7474,-0.7492,-0.7475,-0.7568,-0.7593,-0.7668,-0.7688,-0.7707,-0.7722,-0.7701,-0.779,-0.7799,-0.7807,-0.7836,-0.7847,-0.7714,-0.7713,-0.7713,-0.7713,0,-0.7308,-0.7354,-0.7391,-0.7439,-0.7469,-0.752,-0.7534,-0.7564,-0.7565,-0.7579,-0.7642,-0.7671,-0.7719,-0.7736,-0.7738,-0.7812,-0.7802,-0.7788,-0.7759,-0.782,-0.7847,-0.7858,-0.7717,-0.7716,-0.7715,-0.7715,0,0,-0.74,-0.745,-0.7464,-0.7485,-0.7525,-0.7562,-0.7611,-0.7657,-0.7683,-0.7716,-0.7759,-0.7822,-0.7808,-0.7835,-0.784,-0.7874,-0.7938,-0.7855,-0.7856,-0.7871,-0.8022,-0.8034,-0.8047,-0.7934,-0.7936,-0.7937,-0.8019,0,-0.7479,-0.7568,-0.7574,-0.7654,-0.7697,-0.769,-0.7733,-0.7763,-0.7777,-0.7816,-0.7832,-0.7876,-0.7855,-0.7871,-0.7904,-0.7923,-0.7969,-0.7917,-0.7975,-0.7977,-0.7968,-0.8061,-0.8074,-0.815,-0.803,-0.8032,-0.8033,0,-0.7583,-0.762,-0.7704,-0.7738,-0.7756,-0.7795,-0.7838,-0.7874,-0.7907,-0.7915,-0.7944,-0.7944,-0.7996,-0.7963,-0.8035,-0.8,-0.8023,-0.8036,-0.8039,-0.8046,-0.801,-0.8073,-0.8175,-0.8187,-0.805,-0.8049,-0.8048,0,-0.7644,-0.7714,-0.7773,-0.7792,-0.7833,-0.786,-0.7879,-0.791,-0.7937,-0.7973,-0.7991,-0.8033,-0.8056,-0.8089,-0.81,-0.8075,-0.8172,-0.814,-0.8181,-0.8181,-0.8204,-0.8202,-0.8313,-0.8216,-0.8215,-0.8215,-0.8215,0,-0.7733,-0.7785,-0.7801,-0.7838,-0.7896,-0.7903,-0.796,-0.7977,-0.8005,-0.8045,-0.804,-0.8078,-0.8089,-0.8129,-0.8137,-0.8196,-0.8206,-0.8215,-0.8217,-0.8217,-0.8216,-0.8234,-0.823,-0.8218,-0.8217,-0.8217,-0.8216,0,-0.7812,-0.7824,-0.7889,-0.7922,-0.7931,-0.7972,-0.8001,-0.8036,-0.8048,-0.8099,-0.8112,-0.8132,-0.8178,-0.8192,-0.8248,-0.8253,-0.8323,-0.8319,-0.8312,-0.8312,-0.8353,-0.835,-0.848,-0.8498,-0.8388,-0.8389,-0.8389,0,-0.7868,-0.7908,-0.7945,-0.7971,-0.799,-0.8032,-0.8059,-0.8067,-0.8095,-0.8135,-0.8166,-0.8212,-0.8249,-0.8324,-0.8344,-0.8386,-0.8385,-0.8427,-0.8391,-0.839,-0.8387,-0.8386,-0.839,-0.8435,-0.8436,-0.8437,-0.8438,0,-0.7968,-0.7972,-0.8011,-0.8052,-0.8084,-0.8117,-0.8148,-0.817,-0.8182,-0.8214,-0.8261,-0.829,-0.8346,-0.8392,-0.8435,-0.8454,-0.8449,-0.8449,-0.8461,-0.8462,-0.8456,-0.8461,-0.8332,-0.8446,-0.8445,-0.8445,-0.8444,-0.8444,-0.8039,-0.8074,-0.8105,-0.8148,-0.8172,-0.8201,-0.8236,-0.8253,-0.8292,-0.8338,-0.834,-0.8391,-0.8423,-0.848,-0.8501,-0.8541,-0.8529,-0.8546,-0.8551,-0.8555,-0.8559,-0.8448,-0.8549,-0.8549,-0.8549,-0.8548,-0.8548,0,-0.8139,-0.8158,-0.8198,-0.8242,-0.8276,-0.8266,-0.83,-0.8329,-0.8374,-0.8404,-0.844,-0.8494,-0.8538,-0.856,-0.8604,-0.8632,-0.863,-0.8643,-0.8642,-0.8647,-0.8567,-0.8553,-0.8644,-0.8644,-0.8644,-0.8644,-0.8644,-0.8644,-0.8196,-0.8255,-0.8263,-0.8333,-0.8352,-0.8402,-0.8422,-0.8449,-0.8473,-0.8533,-0.8569,-0.8583,-0.861,-0.8655,-0.8695,-0.87,-0.8718,-0.8732,-0.8736,-0.8662,-0.8653,-0.8643,-0.863,-0.8735,-0.8735,-0.8813,-0.8814,-0.8814]},{"header":{"parameterUnit":"m.s-1","parameterCategory":1,"la1":30.2991,"la2":30.254,"lo1":-89.0895,"lo2":-89.0444,"dy":0.0017,"dx":0.0017,"nx":28,"ny":28,"refTime":"2025-09-07T09:00:00:Z","depth":0,"parameterNumber":3,"parameterNumberName":"V-component_of_WINDS"},"data":[0,0,0,0,0,0,0,0,0,0,0,0,0,0,0,0,0,0,0,0,0,0,0,0,0,0,0,0,0,0,0,0,0,0,0,0,0,0,0,0,0,0,0,0,0,0,0,0,0,0,0,0,0,0,0,0,0,0,-6.0678,-6.0679,0,-6.0756,-6.0757,-6.0758,-6.0696,-6.0693,-6.069,-6.0688,-6.0761,-6.0766,-6.077,0,0,0,0,0,0,0,0,0,0,0,0,0,-6.047,-6.0474,-6.0678,-6.0679,-6.068,-6.0756,-6.0757,-6.0758,-6.0696,-6.0693,-6.069,-6.0687,-6.076,-6.0765,-6.077,0,0,0,0,0,0,0,0,0,0,0,0,0,-6.0555,-6.0476,-6.0678,-6.0659,-6.0658,-6.0755,-6.0757,-6.0758,-6.0697,-6.0693,-6.0689,-6.0685,-6.0758,-6.0765,-6.0771,-6.089,0,0,-6.0791,-6.0794,0,0,0,0,0,0,0,0,-6.055,-6.0563,-6.0661,-6.066,-6.0659,-6.0712,-6.071,-6.0802,-6.0698,-6.0682,-6.0688,-6.0683,-6.0748,-6.0755,-6.0778,-6.0894,-6.0897,-6.0792,-6.0796,-6.0799,-6.08,0,0,0,0,0,0,0,-6.0545,-6.0559,-6.0709,-6.0662,-6.0661,-6.0644,-6.0652,-6.0727,-6.0736,-6.0683,-6.0679,-6.0689,-6.0747,-6.0772,-6.0779,-6.0898,-6.0792,-6.0797,-6.0802,-6.0804,-6.1114,-6.1118,0,0,0,0,0,0,-6.0541,-6.0555,-6.0706,-6.0711,-6.0594,-6.0651,-6.066,-6.0699,-6.0735,-6.0736,-6.0692,-6.0686,-6.0762,-6.0772,-6.0782,-6.0923,-6.0799,-6.0805,-6.0808,-6.111,-6.1115,-6.1119,0,0,0,0,0,0,-6.0537,-6.0556,-6.0703,-6.0632,-6.0649,-6.0659,-6.0703,-6.0703,-6.0728,-6.0742,-6.0742,-6.0717,-6.076,-6.0772,-6.0864,-6.0924,-6.0808,-6.0814,-6.1105,-6.1111,-6.1117,-6.1207,0,0,0,0,0,0,-6.0532,-6.0555,-6.0601,-6.0633,-6.0653,-6.0786,-6.0707,-6.0707,-6.074,-6.0732,-6.0765,-6.0767,-6.0758,-6.0854,-6.087,-6.0931,-6.0819,-6.1099,-6.1107,-6.1115,-6.1198,-6.1215,-6.123,0,0,0,0,0,-6.0524,-6.0622,-6.0604,-6.0623,-6.0713,-6.079,-6.0801,-6.0791,-6.0745,-6.0791,-6.08,-6.0766,-6.0915,-6.0864,-6.0882,-6.0946,-6.1095,-6.1105,-6.1114,-6.1191,-6.1212,-6.123,0,0,0,0,0,0,-6.0595,-6.0626,-6.0606,-6.0718,-6.0752,-6.0779,-6.0837,-6.0813,-6.0859,-6.085,-6.0832,-6.084,-6.0937,-6.095,-6.0893,-6.1062,-6.0998,-6.1011,-6.105,-6.107,-6.1085,-6.108,-6.0824,0,0,0,0,0,-6.0624,-6.0687,-6.0709,-6.0806,-6.0824,-6.0828,-6.0861,-6.085,-6.0884,-6.0897,-6.0913,-6.0945,-6.0999,-6.1035,-6.1086,-6.12,-6.1205,-6.1252,-6.1268,-6.1281,-6.1293,-6.1353,-6.1374,-6.1151,-6.1151,-6.1151,0,0,-6.0684,-6.0708,-6.0749,-6.082,-6.0846,-6.0909,-6.084,-6.091,-6.0956,-6.0907,-6.0995,-6.1008,-6.1042,-6.1146,-6.1192,-6.116,-6.1356,-6.1293,-6.1304,-6.1308,-6.1365,-6.1386,-6.1405,-6.1158,-6.1156,-6.1155,0,0,-6.0825,-6.0851,-6.0933,-6.096,-6.1,-6.1002,-6.1022,-6.1053,-6.106,-6.1149,-6.1114,-6.1167,-6.1261,-6.1287,-6.1312,-6.1463,-6.1433,-6.148,-6.1562,-6.1621,-6.1639,-6.1654,-6.1707,-6.1727,-6.1492,-6.1492,-6.1492,0,-6.0893,-6.0989,-6.0978,-6.1051,-6.1083,-6.1044,-6.1127,-6.1152,-6.1206,-6.1228,-6.1192,-6.1309,-6.1329,-6.1438,-6.1475,-6.1497,-6.1518,-6.1476,-6.1638,-6.1653,-6.1667,-6.1718,-6.1738,-6.1498,-6.1497,-6.1496,-6.1496,0,-6.1071,-6.1138,-6.12,-6.1255,-6.1293,-6.1371,-6.1369,-6.141,-6.1395,-6.14,-6.149,-6.1514,-6.1568,-6.1593,-6.1579,-6.1699,-6.1678,-6.1641,-6.1575,-6.1694,-6.1741,-6.176,-6.1505,-6.1503,-6.1502,-6.1501,0,0,-6.1258,-6.1307,-6.133,-6.1354,-6.1395,-6.1445,-6.152,-6.1575,-6.161,-6.1647,-6.1708,-6.1789,-6.1754,-6.1783,-6.1771,-6.1823,-6.1941,-6.1779,-6.1779,-6.1807,-6.2073,-6.2101,-6.2124,-6.1921,-6.1924,-6.1927,-6.207,0,-6.1401,-6.1534,-6.1526,-6.1649,-6.171,-6.1674,-6.1738,-6.1769,-6.1776,-6.1827,-6.1833,-6.189,-6.1841,-6.1858,-6.1908,-6.1916,-6.1994,-6.1905,-6.1975,-6.1978,-6.1968,-6.2149,-6.2178,-6.2312,-6.2089,-6.2092,-6.2094,0,-6.1585,-6.1632,-6.1762,-6.1794,-6.1819,-6.1878,-6.1927,-6.1977,-6.201,-6.2011,-6.2045,-6.2024,-6.2097,-6.2031,-6.213,-6.2071,-6.2098,-6.2107,-6.2111,-6.2117,-6.2043,-6.2158,-6.2355,-6.2375,-6.2123,-6.2121,-6.2118,0,-6.1708,-6.1803,-6.1893,-6.1915,-6.1954,-6.1996,-6.2014,-6.2044,-6.2078,-6.212,-6.2142,-6.2192,-6.2219,-6.2257,-6.225,-6.2203,-6.2351,-6.2284,-6.2352,-6.2353,-6.2385,-6.2383,-6.2588,-6.2404,-6.2404,-6.2404,-6.2403,0,-6.1868,-6.1948,-6.1949,-6.2004,-6.2093,-6.2083,-6.217,-6.2183,-6.221,-6.2265,-6.2236,-6.2288,-6.2276,-6.2327,-6.2322,-6.2405,-6.2417,-6.2419,-6.2416,-6.2421,-6.2421,-6.2439,-6.2429,-6.2409,-6.2408,-6.2407,-6.2406,0,-6.202,-6.2024,-6.2119,-6.2149,-6.2159,-6.2223,-6.2247,-6.2298,-6.2303,-6.2373,-6.2389,-6.2396,-6.2455,-6.2452,-6.2518,-6.2514,-6.2615,-6.2602,-6.2605,-6.2602,-6.267,-6.2663,-6.2893,-6.2922,-6.2721,-6.2722,-6.2724,0,-6.2121,-6.2183,-6.222,-6.2256,-6.2278,-6.2336,-6.2371,-6.2362,-6.2399,-6.2442,-6.2488,-6.2544,-6.2589,-6.2685,-6.2694,-6.2744,-6.2731,-6.2808,-6.2738,-6.2741,-6.2731,-6.2728,-6.2733,-6.2822,-6.2824,-6.2826,-6.2827,0,-6.2301,-6.23,-6.2352,-6.2406,-6.2448,-6.2489,-6.2527,-6.2557,-6.2552,-6.2595,-6.2656,-6.2691,-6.2759,-6.2815,-6.2863,-6.2878,-6.2852,-6.2849,-6.2868,-6.2873,-6.2872,-6.2873,-6.2642,-6.2844,-6.2842,-6.2841,-6.284,-6.2839,-6.243,-6.2483,-6.2518,-6.2577,-6.2605,-6.264,-6.269,-6.2701,-6.2753,-6.2809,-6.28,-6.2868,-6.2899,-6.2961,-6.2981,-6.3033,-6.3005,-6.3032,-6.3038,-6.3045,-6.3052,-6.2865,-6.3041,-6.3041,-6.304,-6.304,-6.304,0,-6.2607,-6.2628,-6.2683,-6.2737,-6.2783,-6.2756,-6.2796,-6.2836,-6.2897,-6.2929,-6.2974,-6.3044,-6.3098,-6.3112,-6.3163,-6.3202,-6.319,-6.3215,-6.3212,-6.3216,-6.3075,-6.3053,-6.3223,-6.3223,-6.3223,-6.3223,-6.3223,-6.3223,-6.2705,-6.2793,-6.2796,-6.2897,-6.2916,-6.2985,-6.301,-6.3042,-6.3067,-6.3147,-6.3193,-6.3202,-6.3226,-6.3279,-6.3327,-6.3329,-6.3349,-6.3379,-6.3376,-6.3244,-6.3226,-6.3208,-6.3188,-6.3384,-6.3384,-6.3513,-6.3514,-6.3515]}]]